Regional Weather Roundup
Issued by NWS

Home | Current Version | Previous Version | Graphics & Text | Print | Product List | Glossary On
Versions: 1 2 3 4 5 6 7 8 9 10 11 12 13 14 15 16 17 18 19 20 21 22 23 24 25 26
000
ASUS45 KBOI 252110
RWRID

IDAHO REGIONAL WEATHER ROUNDUP
NATIONAL WEATHER SERVICE BOISE ID
300 PM MDT WED MAY 25 2016

NOTE: "FAIR" INDICATES FEW OR NO CLOUDS BELOW 12000 FEET
WITH NO SIGNIFICANT WEATHER AND/OR OBSTRUCTIONS TO VISIBILITY

IDZ012-014-252200-
SOUTHWEST IDAHO


CITY           SKY/WX    TMP DP  RH WIND       PRES   REMARKS
BOISE          PTSUNNY   70  37  29 NW14G23   29.98F
CALDWELL       MOSUNNY   71  38  29 W8        29.98F
MOUNTAIN HOME  PTSUNNY   70  41  34 W12G21    29.98F
$$

IDZ016-017-252200-
SOUTHCENTRAL IDAHO


CITY           SKY/WX    TMP DP  RH WIND       PRES   REMARKS
BURLEY         MOSUNNY   61  41  47 W13       30.01S
JEROME         SUNNY     63  35  35 SW8       30.02S
TWIN FALLS     MOSUNNY   61  38  42 VRB7      30.03S
$$

IDZ019>023-252200-
SOUTHEAST IDAHO


CITY           SKY/WX    TMP DP  RH WIND       PRES   REMARKS
IDAHO FALLS    CLOUDY    57  42  57 VRB3      30.02S
POCATELLO      CLOUDY    65  40  39 W18G24    30.00F
REXBURG        SUNNY     56  39  53 SW9       30.01S
$$

IDZ006-010-011-018-031-032-252200-
CENTRAL IDAHO MOUNTAINS


CITY           SKY/WX    TMP DP  RH WIND       PRES   REMARKS
MCCALL         CLOUDY    58  33  39 NW8       30.03S
HAILEY         DRIZZLE   52  45  76 NE7       30.04F
STANLEY          N/A     56  33  42 NE9       30.05S
SALMON         MOSUNNY   63  36  36 N5        29.97F
CHALLIS        MOSUNNY   61  33  35 CALM      29.99F
$$

IDZ002-004-006-007-026-252200-
NORTHERN IDAHO


CITY           SKY/WX    TMP DP  RH WIND       PRES   REMARKS
LEWISTON       MOSUNNY   73  48  41 N6        30.01F
LOWELL           N/A     58  54  86 N3        30.05S
COEUR D`ALENE  CLOUDY    66  50  55 SW13      29.99F
MULLAN PASS    PTSUNNY   49  42  77 VRB6      30.07S
$$




USA.gov is the U.S. government's official web portal to all federal, state and local government web resources and services.